Dewpoint
-6 -7 -9 -10 -8 -6 -5 -4 -4 -5 -5 -7 -8 -9 -11 -12 -11 -11 -12 -11 -8 -8 -8 -9 -11 -7 -4 -4 -4 -3 1 1 -1 10 10 7 5 5 6 7 5 6 5 5 5
-11 -8 -8 -9 -11 -11 -8 -6 -5 -5 -5 -6 -7 -9 -10 -12 -12 -13 -14 -9 -6 -6 -8 -11 -12 -5 -5 -5 -6 -5 -2 -2 0 7 7 4 5 4 4 5 5 5 6 5 5
-20 -20 -18 -11 -10 -12 -13 -11 -8 -6 -5 -5 -7 -8 -10 -12 -12 -16 -15 -7 -5 -5 -9 -13 -12 -9 -5 -6 -6 -5 -4 1 6 6 4 3 4 3 3 4 4 5 5 5 4
-18 -19 -21 -23 -19 -12 -12 -14 -14 -9 -6 -5 -6 -7 -9 -12 -8 -6 -7 -7 -8 -11 -15 -15 -13 -8 -6 -6 -7 -5 -1 5 6 4 3 2 3 2 2 1 2 2 3 5 4
-21 -22 -21 -21 -24 -24 -18 -13 -16 -15 -9 -6 -6 -6 -8 -10 -12 -5 -6 -9 -9 -13 -15 -14 -10 -8 -6 -7 -4 -1 1 3 5 3 3 2 2 2 2 2 2 4 5 4 3
-22 -23 -23 -22 -21 -23 -25 -22 -14 -17 -14 -8 -6 -6 -6 -4 -13 -8 -6 -6 -6 -7 -8 -9 -8 -4 -7 -7 -1 0 1 1 2 2 2 2 2 2 4 4 4 4 4 3 -0
-22 -23 -24 -25 -24 -23 -23 -26 -23 -14 -18 -11 -7 -6 -6 -11 -12 -8 -9 -6 -4 -7 -9 -10 -6 -3 -3 -1 -2 -0 2 1 1 1 1 0 1 2 4 4 4 4 3 0 0
-21 -22 -23 -24 -25 -26 -25 -24 -27 -16 -17 -15 -8 -6 -6 -13 -12 -14 -10 -9 -5 -6 -9 -6 -4 -3 -2 -2 -2 -0 0 3 1 1 1 -0 3 2 4 3 3 2 1 1 1
-21 -22 -23 -23 -25 -26 -26 -22 -26 -17 -16 -16 -9 -4 -6 -10 -12 -13 -10 -10 -8 -7 -9 -4 -3 -2 -1 -1 -1 -0 -0 2 1 1 1 1 2 1 3 3 2 2 1 1 1
-20 -21 -23 -23 -24 -26 -2 -3 -18 -16 -18 -13 -6 -2 -6 -9 -9 -11 -11 -10 -10 -9 -6 -5 -4 -1 -1 -0 2 -0 1 0 -0 2 1 2 1 1 3 3 2 2 1 2 -0
-19 -20 -22 -22 -23 -12 2 3 1 4 -1 -4 -2 -7 -6 -6 -7 -9 -11 -12 -12 -8 -4 -4 -2 0 -1 -1 -1 -2 -2 -2 -4 -1 2 3 2 2 2 2 2 2 2 1 -1
-18 -20 -22 -22 -23 1 4 4 5 5 5 1 -3 -4 -5 -7 -2 -7 -9 -9 -8 -7 -7 -4 -1 -2 -2 -1 -1 -1 -1 -2 -3 2 2 2 2 1 1 2 2 2 2 1 -0
-17 -19 -21 -21 -8 2 4 6 4 2 5 -2 -9 -2 -3 -3 -1 -4 -10 -9 -8 -5 -6 -5 -5 -5 -3 -3 -2 -3 -2 -2 -2 2 1 1 1 1 0 1 1 2 2 1 0
-15 -18 -20 -20 -4 1 4 4 4 3 6 2 -0 -10 -5 -4 -4 -8 -9 -9 -8 -6 -6 -5 -7 -6 -5 -5 -4 -3 -3 -3 -0 2 4 -1 4 -2 -2 1 1 1 2 1 0
-16 -17 -19 -19 4 5 5 4 2 5 8 -1 -3 -7 -6 -4 -6 -9 -10 -10 -8 -8 -7 -6 -6 -6 -3 -4 -4 -2 -2 -2 -1 -0 0 -0 0 -2 -4 -3 1 1 2 1 1
-16 -16 -17 -18 -4 4 0 -2 4 5 5 -3 -6 -6 -6 -5 -5 -8 -10 -9 -11 -9 -9 -8 -9 -7 -6 -4 -4 -3 -2 -2 -1 -0 2 -1 -0 -0 -2 -3 1 1 2 1 1
-15 -16 -17 -14 -7 -2 -6 4 3 7 -1 -6 -5 -4 -5 -4 -6 -7 -8 -9 -9 -6 -5 -6 -7 -8 -7 -6 -6 -4 -1 2 1 2 3 -1 -2 -1 -2 -0 1 2 2 1 1
-13 -16 -16 -15 0 3 -3 7 7 2 -2 -7 -6 -8 -4 -5 -5 -6 -8 -7 -8 -8 -6 -6 -3 -6 -8 -5 -5 -5 -2 3 3 3 1 -3 -2 -2 -3 2 2 2 2 1 1
-11 -14 -16 -16 -2 -6 6 8 5 -1 -5 -3 -4 -4 -5 -6 -5 -5 -5 -1 -6 -6 -4 -3 -4 -7 -8 -7 -7 -5 -1 -2 1 0 1 -1 -2 -3 -1 3 3 2 2 1 1
-10 -8 -8 -12 -13 -9 7 7 3 -4 -4 -3 -1 -1 0 -3 -4 -4 -1 -2 -1 -3 -4 -4 -3 -5 -8 -7 -8 -7 -6 -3 -1 1 2 1 -2 -2 -0 3 3 2 2 1 1
2 4 3 3 -5 4 3 4 0 -4 -5 -3 -4 -1 0 0 -0 -0 1 -1 -3 -2 -2 -2 -4 -4 -6 -6 -6 -5 -5 -4 -3 2 1 1 0 -3 -2 2 3 2 1 0 0
7 6 6 5 -6 2 1 -1 -4 -4 -6 -6 -6 -2 -2 -1 2 1 0 -2 -3 -3 -3 -3 0 -1 -3 -5 -6 -6 -4 -3 0 -1 1 2 1 -0 -1 1 3 2 1 0 0
7 8 8 5 -6 -2 -2 -4 -4 -4 -3 -4 -5 -4 -4 -4 1 0 -0 -3 -3 -3 -4 -6 -0 0 -2 -1 -2 -2 -3 -4 -2 -0 -1 0 0 1 2 2 2 1 1 0 -0
7 5 6 5 6 1 2 -2 -4 -3 -2 -4 -4 -3 -3 -3 -5 -3 -0 -2 -3 -3 -3 -0 0 1 1 1 -1 -1 -2 -3 -3 0 -1 0 -0 1 3 3 2 1 0 -0 -1
7 6 2 2 1 2 2 3 -3 -1 -3 -4 -3 -3 -3 -3 -2 -2 1 -2 -0 -1 -0 1 3 2 2 1 -1 -1 -2 -2 -1 -2 -0 1 3 3 3 2 1 1 0 -1 -1
7 6 -0 1 -6 0 1 2 -0 -1 -4 -4 -4 -3 1 2 1 1 1 1 0 -1 -1 0 2 2 2 0 -1 -1 -2 -2 -1 -1 1 2 3 1 2 2 1 1 0 -0 -1
6 6 5 2 -3 -1 2 2 -1 -1 -2 -4 -4 -4 3 1 -0 -1 -2 -2 -2 -1 -0 1 1 2 2 1 -2 2 -0 -1 -1 -0 -1 1 1 0 1 1 1 1 0 -0 -1
Wind_Speed
12 12 12 12 11 11 11 11 11 12 12 15 15 16 18 19 15 13 15 10 5 5 8 11 9 6 9 14 17 9 2 3 7 7 3 16 7 7 7 21 7 6 11 11 36
15 14 14 13 12 12 12 12 12 12 12 15 15 16 18 21 18 15 12 8 5 6 10 12 9 9 8 8 6 7 4 8 7 10 7 11 16 16 8 10 4 9 8 25 36
12 14 16 15 15 14 13 13 12 12 12 14 15 16 17 18 17 4 7 7 6 8 11 11 10 12 6 8 4 5 6 6 4 20 30 19 16 9 20 3 14 24 30 40 36
12 11 13 14 16 16 15 14 13 12 12 13 15 16 15 14 3 3 3 1 3 7 9 8 9 6 3 5 7 2 1 11 12 21 22 17 19 10 18 10 17 20 29 39 34
11 12 12 13 14 15 16 15 14 13 12 13 14 15 15 8 13 1 2 1 5 7 6 8 7 8 3 5 10 3 3 13 25 27 26 21 11 10 16 10 19 28 35 34 31
10 12 11 12 12 14 15 16 15 13 12 12 13 13 13 8 7 8 12 9 6 8 11 9 8 18 11 10 6 3 9 13 13 13 21 12 7 14 9 23 30 33 34 32 29
10 11 11 11 12 13 14 15 15 13 12 13 12 14 17 23 6 7 10 12 9 9 11 6 8 10 3 2 5 9 4 1 6 17 8 15 2 6 27 32 35 33 31 31 33
10 10 11 11 12 13 14 14 14 14 12 13 12 13 14 14 16 19 9 9 9 9 11 7 7 8 3 1 3 4 5 3 5 10 7 11 10 5 35 37 31 33 34 33 33
10 10 11 11 11 13 15 15 13 13 12 12 10 8 13 9 12 15 10 9 10 11 10 9 8 2 2 5 5 5 4 6 3 6 4 5 7 11 35 30 30 34 36 36 33
9 9 10 10 10 12 13 13 5 8 8 9 9 7 12 10 7 11 12 14 14 12 7 4 1 2 3 4 6 8 5 4 6 7 7 6 9 5 29 29 31 33 35 38 41
8 8 8 9 8 9 12 3 4 2 5 9 3 15 9 2 6 6 9 16 14 4 3 4 2 7 10 8 6 5 4 6 7 9 6 14 8 9 24 22 23 30 35 38 43
8 7 7 7 4 4 11 7 9 9 11 14 26 31 27 26 13 11 8 4 2 3 1 5 6 11 6 5 7 8 10 12 5 4 7 5 11 9 20 33 39 40 35 36 41
7 6 6 4 2 3 5 10 10 11 5 15 20 21 24 11 16 23 6 4 5 3 5 7 10 5 5 10 7 8 6 5 7 2 4 6 7 6 13 27 26 32 33 37 48
6 6 5 2 4 2 4 4 9 9 3 6 6 12 17 16 8 20 19 8 2 10 6 6 15 8 10 10 8 3 3 4 5 5 3 4 5 7 6 17 19 30 33 35 43
6 6 6 6 5 4 6 7 9 3 3 2 5 3 6 14 3 3 20 12 8 8 5 9 5 4 7 7 3 5 2 2 1 2 1 3 1 6 2 8 18 29 32 37 43
7 8 8 8 9 8 5 5 2 4 3 2 4 6 4 12 12 5 2 18 6 4 3 9 7 4 5 2 1 3 4 7 5 3 3 3 4 6 5 8 7 13 26 38 39
8 9 10 10 7 7 6 2 4 3 6 2 2 3 4 4 3 3 4 3 4 2 5 6 5 4 3 2 3 6 6 4 4 3 6 5 2 5 8 10 5 16 28 35 39
8 9 11 12 6 4 1 3 2 4 5 3 4 2 4 4 4 3 1 2 5 4 2 2 8 4 3 8 7 3 7 5 4 3 7 5 3 4 3 13 20 24 31 34 36
7 7 9 9 10 4 1 2 5 3 3 6 5 2 3 5 5 5 4 7 4 6 5 1 3 3 5 2 7 1 2 5 3 2 3 2 1 4 5 11 19 26 31 31 34
7 6 4 5 8 5 3 4 4 2 3 4 5 5 5 5 3 6 4 6 6 3 4 3 1 3 4 5 4 3 3 3 3 2 4 4 4 5 5 9 11 16 25 29 34
9 4 7 7 8 4 3 6 5 6 4 4 3 3 3 3 3 4 5 2 5 7 5 4 3 5 4 3 3 6 4 2 3 4 4 3 6 3 8 12 14 19 26 35 36
7 2 12 9 3 1 3 4 7 6 2 2 2 4 3 5 7 4 3 1 9 5 4 4 2 1 2 5 4 6 4 4 4 6 2 3 5 12 10 16 24 24 27 32 35
6 4 9 12 3 2 5 3 3 5 4 5 2 2 4 3 5 4 3 3 11 6 3 5 4 3 7 5 7 6 5 0 3 2 1 3 5 9 17 19 22 31 27 32 32
6 2 4 9 4 4 3 3 3 4 1 4 2 5 6 6 3 3 2 1 6 6 6 3 4 4 3 3 4 6 8 6 3 3 1 1 3 4 7 15 20 22 27 30 28
6 5 7 4 5 3 1 2 4 3 0 5 5 4 3 4 3 3 6 3 9 10 6 4 4 4 2 6 5 4 6 8 8 4 4 3 2 3 4 9 17 22 25 27 27
5 3 6 4 10 8 2 3 8 4 4 2 3 5 8 4 1 1 4 3 1 7 4 5 3 6 6 5 8 5 8 8 6 5 6 5 4 3 16 18 18 20 23 24 25
4 6 4 3 5 6 4 4 2 6 3 3 8 4 8 3 5 7 8 7 3 2 2 3 3 4 3 5 5 7 7 6 4 5 1 1 2 5 6 10 17 20 21 22 22
Wind_Direction
278 282 288 289 291 294 298 301 306 310 313 314 318 319 319 314 302 279 258 238 229 264 300 311 304 291 298 249 233 229 82 280 223 188 215 141 126 119 137 140 177 198 180 197 176
272 278 281 285 288 290 292 296 299 303 309 309 313 315 321 319 314 268 245 218 229 268 296 308 293 303 304 263 224 159 149 231 226 166 144 144 130 138 135 138 84 128 168 171 174
277 277 277 280 285 288 289 289 292 296 303 306 310 313 321 323 319 278 202 218 249 268 286 295 280 304 284 285 213 191 206 188 229 145 150 141 137 153 145 233 194 163 158 167 175
282 286 286 283 281 283 287 290 289 291 295 301 306 311 321 322 285 18 98 138 254 270 277 279 270 306 303 305 329 198 327 163 167 150 150 158 155 148 171 213 212 186 172 171 179
286 289 293 294 288 284 283 285 286 286 290 295 302 311 320 302 260 264 201 242 271 270 275 285 282 312 230 301 310 118 195 165 162 160 169 154 169 163 208 222 178 166 168 174 180
285 289 293 297 298 293 286 280 280 283 283 285 294 304 306 274 241 255 249 247 261 281 305 298 261 320 272 276 156 143 136 136 148 139 156 150 149 154 176 168 161 166 172 178 178
284 290 295 302 304 302 294 284 274 276 275 276 285 294 287 255 210 222 273 266 254 263 290 320 320 303 283 272 185 153 105 63 158 152 168 152 193 230 171 170 165 172 176 176 185
282 289 296 304 308 308 302 292 275 264 266 268 276 291 272 269 272 264 249 258 252 251 268 287 282 292 234 195 17 124 91 173 238 176 171 157 249 146 171 169 168 176 176 179 191
278 286 295 305 313 313 314 302 275 248 260 258 275 268 265 260 243 233 240 251 256 276 259 259 291 263 179 86 12 353 236 217 312 224 131 167 250 185 176 172 172 179 180 185 189
273 282 292 305 321 323 338 313 263 262 259 253 240 275 254 265 263 244 234 235 264 288 221 283 271 38 28 95 212 230 235 258 224 221 198 188 243 159 176 182 180 181 185 191 185
268 277 288 304 331 348 3 34 5 81 238 227 235 231 282 55 357 277 238 239 252 255 154 224 98 225 224 206 218 221 242 256 272 225 136 214 218 172 180 194 186 188 192 188 183
266 268 279 300 348 43 40 54 21 334 302 257 254 260 264 270 295 288 220 221 187 213 166 352 230 242 242 256 237 247 257 265 262 229 166 188 235 193 184 206 193 192 194 181 179
266 260 264 285 105 101 62 33 331 317 254 284 247 251 253 256 249 261 238 290 205 232 231 193 245 254 218 265 233 239 224 224 220 145 330 107 311 241 215 221 209 209 196 184 181
257 248 248 224 159 176 144 335 320 333 17 275 208 241 232 231 281 249 246 242 241 209 230 226 262 242 256 246 190 227 262 230 113 105 210 125 271 273 238 210 205 205 194 176 175
244 231 228 190 161 142 262 297 308 299 19 239 176 246 194 178 272 5 229 207 220 227 110 247 264 282 239 220 157 209 193 97 118 135 185 199 199 268 285 266 212 206 182 172 174
228 219 214 213 207 223 273 327 326 48 275 181 136 165 109 207 240 292 326 213 223 199 197 237 260 244 210 231 106 148 58 32 37 70 304 260 141 290 327 308 320 175 160 159 162
215 215 210 211 215 255 298 325 47 137 306 11 213 164 179 215 256 154 253 140 153 88 296 329 290 266 197 160 351 68 56 353 342 351 241 316 73 247 290 313 176 132 139 149 159
211 212 216 213 217 273 300 53 203 250 292 3 20 83 188 206 244 212 307 304 6 71 41 232 326 324 230 184 178 166 147 155 227 231 273 311 257 253 332 37 95 116 128 136 145
204 209 220 206 211 261 171 99 214 279 302 352 352 71 300 221 203 142 78 346 16 0 172 206 263 290 39 76 114 97 150 188 172 269 22 242 309 310 91 72 94 112 121 129 143
179 174 167 181 200 192 89 234 250 285 25 15 51 6 25 332 126 90 41 307 327 298 279 252 192 322 326 45 28 121 171 23 4 282 291 296 282 246 179 134 122 115 120 124 148
160 149 161 140 158 164 167 233 286 329 47 72 19 346 9 355 70 73 11 257 329 320 41 2 80 298 11 23 8 345 344 40 128 142 195 264 277 293 204 151 134 131 133 138 150
163 120 171 162 135 161 188 209 325 328 49 11 70 68 40 12 39 88 98 42 349 328 24 5 141 117 229 341 97 119 57 96 104 307 255 144 277 339 132 128 127 127 134 147 161
164 138 171 188 159 239 268 276 310 331 347 18 30 99 47 44 78 89 89 340 50 55 41 336 1 18 350 358 8 41 346 286 158 122 181 98 291 12 99 109 129 134 141 153 162
162 120 151 200 239 178 182 254 243 250 34 38 352 53 59 41 48 115 126 344 39 60 31 56 54 107 151 241 277 334 353 360 67 63 296 144 288 28 81 119 129 132 143 154 155
186 226 183 194 241 218 153 238 183 239 42 50 22 81 58 56 15 63 39 36 35 17 37 77 63 33 341 14 31 39 49 42 52 319 99 332 62 53 118 128 131 132 137 146 160
176 230 189 191 181 161 195 244 169 193 143 165 118 56 69 70 279 129 124 51 49 355 56 4 3 28 355 10 53 51 29 72 28 11 77 104 57 89 124 127 130 140 148 155 163
204 267 256 198 142 125 214 213 149 154 10 205 172 106 81 121 105 90 87 115 122 95 29 80 80 35 308 335 26 29 350 49 75 7 318 248 109 112 105 123 150 163 169 169 176
Height
1539 1539 1537 1536 1535 1535 1534 1532 1531 1530 1528 1526 1524 1522 1519 1516 1515 1513 1511 1513 1514 1515 1516 1517 1517 1518 1518 1518 1520 1522 1533 1541 1532 1529 1519 1520 1525 1532 1532 1534 1536 1537 1536 1537 1544
1536 1535 1535 1535 1534 1533 1532 1531 1529 1528 1526 1525 1522 1519 1518 1514 1511 1508 1509 1510 1511 1513 1514 1514 1514 1515 1514 1513 1516 1516 1531 1525 1511 1513 1515 1518 1520 1528 1532 1534 1536 1535 1536 1537 1543
1533 1533 1533 1532 1531 1530 1529 1529 1527 1526 1524 1523 1520 1518 1516 1514 1510 1505 1506 1508 1510 1511 1512 1512 1513 1513 1511 1508 1510 1511 1519 1508 1510 1506 1509 1516 1521 1524 1527 1533 1529 1529 1534 1538 1542
1532 1530 1529 1529 1528 1528 1527 1526 1525 1524 1522 1520 1518 1516 1515 1513 1515 1505 1506 1508 1509 1510 1510 1511 1510 1511 1511 1509 1507 1508 1505 1505 1508 1507 1509 1514 1518 1523 1523 1522 1523 1526 1528 1534 1540
1529 1528 1527 1526 1525 1524 1524 1523 1522 1521 1520 1518 1517 1515 1513 1512 1506 1505 1505 1507 1508 1508 1509 1509 1508 1510 1510 1507 1505 1504 1506 1506 1505 1506 1507 1513 1515 1519 1520 1520 1522 1527 1531 1535 1540
1526 1526 1525 1524 1523 1521 1520 1520 1519 1518 1517 1516 1515 1514 1513 1511 1503 1503 1503 1504 1505 1507 1507 1507 1507 1507 1506 1505 1505 1503 1503 1506 1507 1507 1508 1511 1516 1516 1522 1521 1522 1525 1529 1534 1537
1524 1524 1523 1521 1520 1519 1517 1516 1516 1516 1515 1514 1513 1512 1509 1501 1501 1502 1502 1501 1502 1505 1505 1505 1505 1507 1504 1503 1502 1502 1507 1507 1508 1506 1508 1510 1521 1515 1515 1521 1521 1524 1528 1532 1535
1522 1522 1521 1519 1518 1516 1514 1513 1512 1512 1512 1511 1511 1510 1503 1498 1499 1498 1500 1499 1500 1501 1503 1503 1503 1503 1502 1502 1502 1505 1509 1521 1507 1503 1506 1508 1517 1514 1515 1516 1522 1524 1526 1529 1531
1520 1519 1519 1518 1516 1514 1511 1509 1508 1508 1508 1509 1510 1509 1500 1494 1494 1496 1498 1498 1499 1499 1501 1501 1501 1502 1501 1508 1517 1514 1525 1520 1511 1503 1504 1507 1511 1506 1511 1516 1518 1521 1524 1525 1527
1517 1518 1517 1516 1514 1512 1509 1505 1504 1505 1506 1507 1508 1511 1496 1493 1494 1495 1496 1497 1498 1498 1499 1500 1500 1503 1506 1513 1533 1524 1523 1516 1516 1504 1503 1508 1505 1504 1510 1515 1513 1517 1520 1520 1521
1515 1515 1515 1514 1513 1511 1509 1504 1507 1507 1505 1502 1501 1495 1493 1492 1492 1492 1493 1495 1497 1498 1501 1499 1507 1514 1506 1502 1501 1506 1511 1514 1504 1493 1500 1501 1501 1505 1509 1514 1515 1514 1513 1514 1519
1513 1513 1513 1513 1512 1512 1512 1511 1514 1515 1506 1498 1495 1493 1491 1495 1496 1490 1492 1495 1495 1500 1499 1505 1511 1498 1497 1500 1503 1505 1509 1507 1496 1490 1496 1501 1501 1500 1503 1497 1497 1499 1506 1510 1517
1511 1511 1511 1512 1512 1513 1512 1513 1513 1512 1509 1491 1488 1488 1488 1493 1491 1488 1491 1492 1494 1498 1499 1509 1499 1493 1497 1498 1504 1502 1505 1499 1498 1493 1493 1499 1508 1499 1497 1496 1500 1499 1503 1507 1509
1509 1509 1510 1510 1514 1511 1511 1512 1511 1510 1514 1492 1484 1482 1486 1489 1488 1484 1487 1492 1493 1498 1497 1501 1490 1494 1496 1498 1494 1498 1487 1487 1493 1503 1518 1496 1527 1499 1486 1487 1491 1492 1497 1503 1511
1507 1507 1508 1509 1510 1511 1512 1510 1510 1510 1525 1481 1481 1479 1480 1485 1483 1480 1484 1488 1492 1492 1495 1499 1490 1490 1493 1488 1483 1490 1482 1485 1488 1499 1503 1505 1518 1494 1482 1483 1481 1479 1490 1498 1508
1505 1506 1507 1508 1509 1509 1510 1510 1510 1520 1520 1483 1477 1479 1481 1482 1480 1481 1483 1486 1485 1488 1489 1490 1483 1484 1482 1481 1480 1481 1487 1494 1499 1506 1523 1503 1511 1508 1500 1492 1478 1481 1492 1498 1508
1503 1505 1506 1507 1508 1509 1509 1510 1521 1526 1485 1486 1481 1479 1481 1483 1482 1483 1486 1486 1494 1501 1503 1492 1487 1481 1479 1484 1482 1487 1504 1531 1530 1531 1530 1498 1509 1506 1495 1488 1480 1483 1491 1500 1508
1502 1503 1504 1506 1508 1509 1509 1513 1521 1498 1490 1479 1480 1479 1485 1482 1483 1483 1487 1493 1488 1493 1506 1509 1512 1483 1474 1480 1489 1490 1501 1529 1535 1537 1521 1500 1509 1502 1494 1491 1486 1491 1497 1504 1511
1501 1502 1503 1505 1507 1509 1511 1521 1512 1495 1489 1487 1482 1485 1486 1480 1483 1486 1496 1504 1495 1495 1503 1504 1498 1481 1477 1474 1479 1490 1504 1495 1511 1513 1525 1515 1503 1497 1496 1497 1497 1498 1501 1508 1512
1500 1502 1503 1505 1507 1509 1512 1515 1502 1489 1488 1487 1497 1491 1496 1488 1485 1489 1502 1503 1500 1493 1492 1492 1502 1485 1480 1477 1480 1483 1486 1509 1517 1524 1527 1516 1507 1506 1501 1502 1504 1506 1508 1512 1518
1501 1502 1504 1505 1507 1509 1517 1511 1499 1491 1489 1491 1494 1495 1493 1493 1490 1500 1508 1504 1499 1494 1492 1494 1498 1499 1486 1489 1493 1496 1500 1499 1505 1518 1528 1533 1521 1490 1488 1495 1503 1508 1511 1514 1520
1501 1503 1503 1506 1509 1509 1512 1502 1498 1492 1490 1490 1490 1492 1495 1494 1498 1502 1508 1504 1499 1497 1501 1498 1502 1511 1498 1492 1489 1492 1501 1505 1525 1521 1517 1526 1523 1496 1487 1497 1502 1511 1516 1518 1519
1500 1502 1503 1505 1512 1510 1503 1500 1499 1496 1492 1492 1491 1491 1493 1495 1505 1501 1503 1503 1499 1499 1504 1503 1512 1521 1510 1502 1496 1500 1499 1498 1503 1512 1513 1529 1524 1506 1499 1504 1510 1510 1517 1520 1524
1498 1502 1503 1504 1503 1502 1501 1501 1500 1495 1493 1492 1494 1492 1495 1500 1497 1503 1505 1503 1502 1502 1502 1501 1513 1520 1531 1520 1511 1512 1506 1502 1502 1520 1517 1520 1513 1513 1514 1511 1516 1519 1522 1526 1533
1495 1494 1493 1502 1501 1499 1498 1498 1498 1497 1493 1494 1497 1497 1499 1504 1504 1504 1505 1505 1505 1505 1505 1508 1522 1517 1514 1513 1511 1513 1512 1512 1513 1512 1519 1519 1519 1517 1520 1519 1522 1525 1529 1531 1533
1492 1492 1492 1490 1491 1498 1498 1495 1495 1493 1494 1497 1499 1500 1500 1509 1508 1509 1507 1511 1514 1510 1511 1513 1524 1520 1522 1515 1514 1518 1518 1518 1518 1517 1522 1522 1524 1521 1522 1523 1527 1529 1531 1533 1535
1491 1490 1490 1488 1491 1497 1496 1492 1491 1491 1494 1493 1495 1500 1507 1508 1507 1507 1507 1509 1510 1513 1515 1518 1525 1532 1530 1519 1518 1534 1527 1523 1524 1523 1520 1525 1524 1526 1528 1529 1530 1531 1532 1533 1535